Year,Month,Day,Hour,Minute,Value (Times are PST for temperature in C)
2020,09,29,00,00,11.80
2020,09,29,00,01,11.80
2020,09,29,00,02,11.80
2020,09,29,00,03,11.80
2020,09,29,00,04,11.80
2020,09,29,00,05,11.80
2020,09,29,00,06,11.80
2020,09,29,00,07,11.70
2020,09,29,00,08,11.70
2020,09,29,00,09,11.70
2020,09,29,00,10,11.70
2020,09,29,00,11,11.70
2020,09,29,00,12,11.70
2020,09,29,00,13,11.70
2020,09,29,00,14,11.70
2020,09,29,00,15,11.70
2020,09,29,00,16,11.70
2020,09,29,00,17,11.60
2020,09,29,00,18,11.60
2020,09,29,00,19,11.60
2020,09,29,00,20,11.60
2020,09,29,00,21,11.60
2020,09,29,00,22,11.60
2020,09,29,00,23,11.60
2020,09,29,00,24,11.60
2020,09,29,00,25,11.60
2020,09,29,00,26,11.60
2020,09,29,00,27,11.60
2020,09,29,00,28,11.60
2020,09,29,00,29,11.60
2020,09,29,00,30,11.60
2020,09,29,00,31,11.60
2020,09,29,00,32,11.60
2020,09,29,00,33,11.50
2020,09,29,00,34,11.40
2020,09,29,00,35,11.40
2020,09,29,00,36,11.40
2020,09,29,00,37,11.40
2020,09,29,00,38,11.40
2020,09,29,00,39,11.40
2020,09,29,00,40,11.40
2020,09,29,00,41,11.40
2020,09,29,00,42,11.40
2020,09,29,00,43,11.40
2020,09,29,00,44,11.40
2020,09,29,00,45,11.50
2020,09,29,00,46,11.60
2020,09,29,00,47,11.60
2020,09,29,00,48,11.60
2020,09,29,00,49,11.60
2020,09,29,00,50,11.60
2020,09,29,00,51,11.60
2020,09,29,00,52,11.60
2020,09,29,00,53,11.60
2020,09,29,00,54,11.60
2020,09,29,00,55,11.60
2020,09,29,00,56,11.60
2020,09,29,00,57,11.60
2020,09,29,00,58,11.60
2020,09,29,00,59,11.60
2020,09,29,01,00,11.60
2020,09,29,01,01,11.60
2020,09,29,01,02,11.60
2020,09,29,01,03,11.60
2020,09,29,01,04,11.60
2020,09,29,01,05,11.60
2020,09,29,01,06,11.60
2020,09,29,01,07,11.60
2020,09,29,01,08,11.60
2020,09,29,01,09,11.60
2020,09,29,01,10,11.40
2020,09,29,01,11,11.40
2020,09,29,01,12,11.40
2020,09,29,01,13,11.40
2020,09,29,01,14,11.40
2020,09,29,01,15,11.40
2020,09,29,01,16,11.40
2020,09,29,01,17,11.40
2020,09,29,01,18,11.40
2020,09,29,01,19,11.40
2020,09,29,01,20,11.40
2020,09,29,01,21,11.40
2020,09,29,01,22,11.40
2020,09,29,01,23,11.40
2020,09,29,01,24,11.40
2020,09,29,01,25,11.40
2020,09,29,01,26,11.40
2020,09,29,01,27,11.40
2020,09,29,01,28,11.40
2020,09,29,01,29,11.30
2020,09,29,01,30,11.30
2020,09,29,01,31,11.30
2020,09,29,01,32,11.20
2020,09,29,01,33,11.20
2020,09,29,01,34,11.20
2020,09,29,01,35,11.20
2020,09,29,01,36,11.10
2020,09,29,01,37,11.10
2020,09,29,01,38,11.10
2020,09,29,01,39,11.10
2020,09,29,01,40,11.10
2020,09,29,01,41,11.10
2020,09,29,01,42,11.10
2020,09,29,01,43,11.10
2020,09,29,01,44,11.10
2020,09,29,01,45,11.10
2020,09,29,01,46,11.10
2020,09,29,01,47,11.10
2020,09,29,01,48,11.10
2020,09,29,01,49,11.10
2020,09,29,01,50,11.10
2020,09,29,01,51,11.10
2020,09,29,01,52,11.10
2020,09,29,01,53,11.10
2020,09,29,01,54,11.10
2020,09,29,01,55,11.10
2020,09,29,01,56,11.10
2020,09,29,01,57,11.10
2020,09,29,01,58,11.10
2020,09,29,01,59,11.10
2020,09,29,02,00,11.10
2020,09,29,02,01,11.10
2020,09,29,02,02,11.20
2020,09,29,02,03,11.20
2020,09,29,02,04,11.20
2020,09,29,02,05,11.20
2020,09,29,02,06,11.10
2020,09,29,02,07,11.10
2020,09,29,02,08,11.10
2020,09,29,02,09,11.10
2020,09,29,02,10,11.10
2020,09,29,02,11,11.20
2020,09,29,02,12,11.20
2020,09,29,02,13,11.20
2020,09,29,02,14,11.20
2020,09,29,02,15,11.20
2020,09,29,02,16,11.20
2020,09,29,02,17,11.20
2020,09,29,02,18,11.20
2020,09,29,02,19,11.20
2020,09,29,02,20,11.10
2020,09,29,02,21,11.10
2020,09,29,02,22,11.20
2020,09,29,02,23,11.20
2020,09,29,02,24,11.20
2020,09,29,02,25,11.20
2020,09,29,02,26,11.20
2020,09,29,02,27,11.20
2020,09,29,02,28,11.20
2020,09,29,02,29,11.20
2020,09,29,02,30,11.20
2020,09,29,02,31,11.30
2020,09,29,02,32,11.30
2020,09,29,02,33,11.20
2020,09,29,02,34,11.20
2020,09,29,02,35,11.20
2020,09,29,02,36,11.20
2020,09,29,02,37,11.20
2020,09,29,02,38,11.20
2020,09,29,02,39,11.10
2020,09,29,02,40,11.10
2020,09,29,02,41,11.10
2020,09,29,02,42,11.10
2020,09,29,02,43,11.10
2020,09,29,02,44,11.10
2020,09,29,02,45,11.10
2020,09,29,02,46,11.10
2020,09,29,02,47,11.10
2020,09,29,02,48,11.10
2020,09,29,02,49,11.10
2020,09,29,02,50,11.10
2020,09,29,02,51,11.10
2020,09,29,02,52,11.10
2020,09,29,02,53,11.10
2020,09,29,02,54,11.10
2020,09,29,02,55,11.10
2020,09,29,02,56,11.10
2020,09,29,02,57,11.10
2020,09,29,02,58,11.10
2020,09,29,02,59,11.10
2020,09,29,03,00,11.10
2020,09,29,03,01,11.10
2020,09,29,03,02,11.10
2020,09,29,03,03,11.10
2020,09,29,03,04,11.10
2020,09,29,03,05,11.10
2020,09,29,03,06,11.10
2020,09,29,03,07,11.10
2020,09,29,03,08,11.10
2020,09,29,03,09,11.10
2020,09,29,03,10,11.10
2020,09,29,03,11,11.10
2020,09,29,03,12,11.10
2020,09,29,03,13,11.10
2020,09,29,03,14,11.10
2020,09,29,03,15,11.10
2020,09,29,03,16,11.10
2020,09,29,03,17,11.10
2020,09,29,03,18,11.10
2020,09,29,03,19,11.10
2020,09,29,03,20,11.10
2020,09,29,03,21,11.20
2020,09,29,03,22,11.20
2020,09,29,03,23,11.20
2020,09,29,03,24,11.20
2020,09,29,03,25,11.20
2020,09,29,03,26,11.20
2020,09,29,03,27,11.20
2020,09,29,03,28,11.20
2020,09,29,03,29,11.10
2020,09,29,03,30,11.10
2020,09,29,03,31,11.10
2020,09,29,03,32,11.10
2020,09,29,03,33,11.10
2020,09,29,03,34,11.10
2020,09,29,03,35,11.10
2020,09,29,03,36,11.10
2020,09,29,03,37,11.10
2020,09,29,03,38,11.10
2020,09,29,03,39,11.10
2020,09,29,03,40,11.10
2020,09,29,03,41,11.10
2020,09,29,03,42,11.20
2020,09,29,03,43,11.20
2020,09,29,03,44,11.20
2020,09,29,03,45,11.20
2020,09,29,03,46,11.30
2020,09,29,03,47,11.30
2020,09,29,03,48,11.30
2020,09,29,03,49,11.30
2020,09,29,03,50,11.40
2020,09,29,03,51,11.30
2020,09,29,03,52,11.30
2020,09,29,03,53,11.30
2020,09,29,03,54,11.20
2020,09,29,03,55,11.20
2020,09,29,03,56,11.10
2020,09,29,03,57,11.10
2020,09,29,03,58,11.10
2020,09,29,03,59,11.10
2020,09,29,04,00,10.90
2020,09,29,04,01,10.90
2020,09,29,04,02,10.90
2020,09,29,04,03,10.90
2020,09,29,04,04,10.90
2020,09,29,04,05,10.90
2020,09,29,04,06,10.90
2020,09,29,04,07,10.90
2020,09,29,04,08,10.90
2020,09,29,04,09,10.90
2020,09,29,04,10,10.90
2020,09,29,04,11,10.90
2020,09,29,04,12,10.90
2020,09,29,04,13,10.90
2020,09,29,04,14,10.90
2020,09,29,04,15,10.90
2020,09,29,04,16,10.90
2020,09,29,04,17,11.10
2020,09,29,04,18,11.10
2020,09,29,04,19,11.10
2020,09,29,04,20,11.20
2020,09,29,04,21,11.20
2020,09,29,04,22,11.30
2020,09,29,04,23,11.40
2020,09,29,04,24,11.40
2020,09,29,04,25,11.40
2020,09,29,04,26,11.40
2020,09,29,04,27,11.40
2020,09,29,04,28,11.40
2020,09,29,04,29,11.40
2020,09,29,04,30,11.40
2020,09,29,04,31,11.50
2020,09,29,04,32,11.50
2020,09,29,04,33,11.60
2020,09,29,04,34,11.60
2020,09,29,04,35,11.60
2020,09,29,04,36,11.60
2020,09,29,04,37,11.60
2020,09,29,04,38,11.60
2020,09,29,04,39,11.60
2020,09,29,04,40,11.60
2020,09,29,04,41,11.60
2020,09,29,04,42,11.60
2020,09,29,04,43,11.60
2020,09,29,04,44,11.60
2020,09,29,04,45,11.60
2020,09,29,04,46,11.60
2020,09,29,04,47,11.60
2020,09,29,04,48,11.60
2020,09,29,04,49,11.50
2020,09,29,04,50,11.40
2020,09,29,04,51,11.40
2020,09,29,04,52,11.40
2020,09,29,04,53,11.40
2020,09,29,04,54,11.40
2020,09,29,04,55,11.40
2020,09,29,04,56,11.50
2020,09,29,04,57,11.60
2020,09,29,04,58,11.60
2020,09,29,04,59,11.60
2020,09,29,05,00,11.60
2020,09,29,05,01,11.60
2020,09,29,05,02,11.60
2020,09,29,05,03,11.60
2020,09,29,05,04,11.70
2020,09,29,05,05,11.70
2020,09,29,05,06,11.70
2020,09,29,05,07,11.70
2020,09,29,05,08,11.70
2020,09,29,05,09,11.70
2020,09,29,05,10,11.70
2020,09,29,05,11,11.70
2020,09,29,05,12,11.70
2020,09,29,05,13,11.70
2020,09,29,05,14,11.70
2020,09,29,05,15,11.60
2020,09,29,05,16,11.60
2020,09,29,05,17,11.60
2020,09,29,05,18,11.60
2020,09,29,05,19,11.60
2020,09,29,05,20,11.60
2020,09,29,05,21,11.60
2020,09,29,05,22,11.60
2020,09,29,05,23,11.60
2020,09,29,05,24,11.40
2020,09,29,05,25,11.40
2020,09,29,05,26,11.40
2020,09,29,05,27,11.40
2020,09,29,05,28,11.40
2020,09,29,05,29,11.40
2020,09,29,05,30,11.40
2020,09,29,05,31,11.40
2020,09,29,05,32,11.40
2020,09,29,05,33,11.40
2020,09,29,05,34,11.30
2020,09,29,05,35,11.30
2020,09,29,05,36,11.30
2020,09,29,05,37,11.30
2020,09,29,05,38,11.30
2020,09,29,05,39,11.30
2020,09,29,05,40,11.30
2020,09,29,05,41,11.30
2020,09,29,05,42,11.30
2020,09,29,05,43,11.40
2020,09,29,05,44,11.40
2020,09,29,05,45,11.40
2020,09,29,05,46,11.40
2020,09,29,05,47,11.40
2020,09,29,05,48,11.60
2020,09,29,05,49,11.60
2020,09,29,05,50,11.60
2020,09,29,05,51,11.50
2020,09,29,05,52,11.40
2020,09,29,05,53,11.40
2020,09,29,05,54,11.40
2020,09,29,05,55,11.40
2020,09,29,05,56,11.30
2020,09,29,05,57,11.30
2020,09,29,05,58,11.20
2020,09,29,05,59,11.20
2020,09,29,06,00,11.20
2020,09,29,06,01,11.20
2020,09,29,06,02,11.10
2020,09,29,06,03,11.10
2020,09,29,06,04,11.10
2020,09,29,06,05,11.10
2020,09,29,06,06,11.10
2020,09,29,06,07,11.00
2020,09,29,06,08,10.90
2020,09,29,06,09,10.90
2020,09,29,06,10,10.90
2020,09,29,06,11,10.90
2020,09,29,06,12,10.90
2020,09,29,06,13,10.90
2020,09,29,06,14,10.90
2020,09,29,06,15,10.90
2020,09,29,06,16,10.90
2020,09,29,06,17,10.90
2020,09,29,06,18,10.90
2020,09,29,06,19,10.90
2020,09,29,06,20,10.90
2020,09,29,06,21,10.90
2020,09,29,06,22,10.90
2020,09,29,06,23,10.90
2020,09,29,06,24,10.90
2020,09,29,06,25,10.90
2020,09,29,06,26,10.90
2020,09,29,06,27,10.90
2020,09,29,06,28,10.90
2020,09,29,06,29,10.80
2020,09,29,06,30,10.80
2020,09,29,06,31,10.80
2020,09,29,06,32,10.80
2020,09,29,06,33,10.80
2020,09,29,06,34,10.80
2020,09,29,06,35,10.80
2020,09,29,06,36,10.80
2020,09,29,06,37,10.80
2020,09,29,06,38,10.80
2020,09,29,06,39,10.90
2020,09,29,06,40,10.90
2020,09,29,06,41,10.90
2020,09,29,06,42,10.90
2020,09,29,06,43,11.10
2020,09,29,06,44,11.10
2020,09,29,06,45,11.10
2020,09,29,06,46,11.10
2020,09,29,06,47,11.10
2020,09,29,06,48,11.10
2020,09,29,06,49,11.10
2020,09,29,06,50,11.10
2020,09,29,06,51,11.10
2020,09,29,06,52,11.10
2020,09,29,06,53,11.10
2020,09,29,06,54,11.10
2020,09,29,06,55,11.00
2020,09,29,06,56,10.90
2020,09,29,06,57,10.90
2020,09,29,06,58,10.90
2020,09,29,06,59,10.90
2020,09,29,07,00,10.90
2020,09,29,07,01,10.90
2020,09,29,07,02,10.90
2020,09,29,07,03,10.90
2020,09,29,07,04,10.80
2020,09,29,07,05,10.80
2020,09,29,07,06,10.80
2020,09,29,07,07,10.70
2020,09,29,07,08,10.70
2020,09,29,07,09,10.70
2020,09,29,07,10,10.70
2020,09,29,07,11,10.70
2020,09,29,07,12,10.70
2020,09,29,07,13,10.70
2020,09,29,07,14,10.60
2020,09,29,07,15,10.60
2020,09,29,07,16,10.60
2020,09,29,07,17,10.60
2020,09,29,07,18,10.60
2020,09,29,07,19,10.60
2020,09,29,07,20,10.60
2020,09,29,07,21,10.60
2020,09,29,07,22,10.60
2020,09,29,07,23,10.60
2020,09,29,07,24,10.60
2020,09,29,07,25,10.60
2020,09,29,07,26,10.60
2020,09,29,07,27,10.60
2020,09,29,07,28,10.60
2020,09,29,07,29,10.60
2020,09,29,07,30,10.60
2020,09,29,07,31,10.60
2020,09,29,07,32,10.60
2020,09,29,07,33,10.60
2020,09,29,07,34,10.60
2020,09,29,07,35,10.60
2020,09,29,07,36,10.60
2020,09,29,07,37,10.60
2020,09,29,07,38,10.60
2020,09,29,07,39,10.60
2020,09,29,07,40,10.60
2020,09,29,07,41,10.60
2020,09,29,07,42,10.70
2020,09,29,07,43,10.70
2020,09,29,07,44,10.70
2020,09,29,07,45,10.70
2020,09,29,07,46,10.70
2020,09,29,07,47,10.70
2020,09,29,07,48,10.70
2020,09,29,07,49,10.70
2020,09,29,07,50,10.70
2020,09,29,07,51,10.70
2020,09,29,07,52,10.70
2020,09,29,07,53,10.80
2020,09,29,07,54,10.80
2020,09,29,07,55,10.80
2020,09,29,07,56,10.80
2020,09,29,07,57,10.80
2020,09,29,07,58,10.80
2020,09,29,07,59,10.80
2020,09,29,08,00,10.90
2020,09,29,08,01,10.90
2020,09,29,08,02,10.90
2020,09,29,08,03,10.90
2020,09,29,08,04,10.90
2020,09,29,08,05,10.90
2020,09,29,08,06,10.90
2020,09,29,08,07,10.90
2020,09,29,08,08,11.00
2020,09,29,08,09,11.10
2020,09,29,08,10,11.10
2020,09,29,08,11,11.20
2020,09,29,08,12,11.30
2020,09,29,08,13,11.40
2020,09,29,08,14,11.40
2020,09,29,08,15,11.50
2020,09,29,08,16,11.60
2020,09,29,08,17,11.60
2020,09,29,08,18,11.60
2020,09,29,08,19,11.70
2020,09,29,08,20,11.70
2020,09,29,08,21,11.70
2020,09,29,08,22,11.80
2020,09,29,08,23,11.80
2020,09,29,08,24,11.80
2020,09,29,08,25,11.80
2020,09,29,08,26,11.80
2020,09,29,08,27,11.80
2020,09,29,08,28,11.80
2020,09,29,08,29,11.80
2020,09,29,08,30,11.90
2020,09,29,08,31,11.90
2020,09,29,08,32,11.90
2020,09,29,08,33,12.00
2020,09,29,08,34,12.00
2020,09,29,08,35,12.10
2020,09,29,08,36,12.10
2020,09,29,08,37,12.10
2020,09,29,08,38,12.20
2020,09,29,08,39,12.20
2020,09,29,08,40,12.30
2020,09,29,08,41,12.30
2020,09,29,08,42,12.30
2020,09,29,08,43,12.40
2020,09,29,08,44,12.40
2020,09,29,08,45,12.50
2020,09,29,08,46,12.50
2020,09,29,08,47,12.60
2020,09,29,08,48,12.70
2020,09,29,08,49,12.80
2020,09,29,08,50,12.90
2020,09,29,08,51,12.90
2020,09,29,08,52,13.00
2020,09,29,08,53,13.00
2020,09,29,08,54,13.00
2020,09,29,08,55,13.00
2020,09,29,08,56,13.10
2020,09,29,08,57,13.10
2020,09,29,08,58,13.10
2020,09,29,08,59,13.20
2020,09,29,09,00,13.20
2020,09,29,09,01,13.30
2020,09,29,09,02,13.30
2020,09,29,09,03,13.30
2020,09,29,09,04,13.40
2020,09,29,09,05,13.50
2020,09,29,09,06,13.50
2020,09,29,09,07,13.60
2020,09,29,09,08,13.60
2020,09,29,09,09,13.60
2020,09,29,09,10,13.70
2020,09,29,09,11,13.70
2020,09,29,09,12,13.70
2020,09,29,09,13,13.70
2020,09,29,09,14,13.80
2020,09,29,09,15,13.80
2020,09,29,09,16,13.90
2020,09,29,09,17,13.90
2020,09,29,09,18,14.00
2020,09,29,09,19,14.10
2020,09,29,09,20,14.20
2020,09,29,09,21,14.20
2020,09,29,09,22,14.40
2020,09,29,09,23,14.50
2020,09,29,09,24,14.70
2020,09,29,09,25,14.80
2020,09,29,09,26,14.80
2020,09,29,09,27,14.80
2020,09,29,09,28,14.90
2020,09,29,09,29,14.90
2020,09,29,09,30,15.00
2020,09,29,09,31,15.00
2020,09,29,09,32,15.10
2020,09,29,09,33,15.20
2020,09,29,09,34,15.20
2020,09,29,09,35,15.30
2020,09,29,09,36,15.40
2020,09,29,09,37,15.40
2020,09,29,09,38,15.50
2020,09,29,09,39,15.60
2020,09,29,09,40,15.70
2020,09,29,09,41,15.80
2020,09,29,09,42,15.90
2020,09,29,09,43,16.10
2020,09,29,09,44,16.20
2020,09,29,09,45,16.30
2020,09,29,09,46,16.40
2020,09,29,09,47,16.50
2020,09,29,09,48,16.60
2020,09,29,09,49,16.70
2020,09,29,09,50,16.70
2020,09,29,09,51,16.80
2020,09,29,09,52,16.90
2020,09,29,09,53,17.00
2020,09,29,09,54,17.00
2020,09,29,09,55,17.10
2020,09,29,09,56,17.20
2020,09,29,09,57,17.30
2020,09,29,09,58,17.50
2020,09,29,09,59,17.50
2020,09,29,10,00,17.70
2020,09,29,10,01,17.80
2020,09,29,10,02,17.90
2020,09,29,10,03,18.10
2020,09,29,10,04,18.20
2020,09,29,10,05,18.30
2020,09,29,10,06,18.50
2020,09,29,10,07,18.60
2020,09,29,10,08,18.70
2020,09,29,10,09,18.80
2020,09,29,10,10,18.90
2020,09,29,10,11,19.00
2020,09,29,10,12,19.10
2020,09,29,10,13,19.10
2020,09,29,10,14,19.20
2020,09,29,10,15,19.30
2020,09,29,10,16,19.40
2020,09,29,10,17,19.40
2020,09,29,10,18,19.50
2020,09,29,10,19,19.60
2020,09,29,10,20,19.70
2020,09,29,10,21,19.70
2020,09,29,10,22,19.80
2020,09,29,10,23,19.80
2020,09,29,10,24,19.80
2020,09,29,10,25,19.90
2020,09,29,10,26,19.90
2020,09,29,10,27,19.90
2020,09,29,10,28,19.90
2020,09,29,10,29,19.90
2020,09,29,10,30,20.00
2020,09,29,10,31,20.10
2020,09,29,10,32,20.20
2020,09,29,10,33,20.30
2020,09,29,10,34,20.40
2020,09,29,10,35,20.40
2020,09,29,10,36,20.50
2020,09,29,10,37,20.50
2020,09,29,10,38,20.60
2020,09,29,10,39,20.60
2020,09,29,10,40,20.70
2020,09,29,10,41,20.80
2020,09,29,10,42,20.90
2020,09,29,10,43,20.90
2020,09,29,10,44,21.00
2020,09,29,10,45,21.10
2020,09,29,10,46,21.20
2020,09,29,10,47,21.30
2020,09,29,10,48,21.30
2020,09,29,10,49,21.30
2020,09,29,10,50,21.30
2020,09,29,10,51,21.30
2020,09,29,10,52,21.30
2020,09,29,10,53,21.30
2020,09,29,10,54,21.30
2020,09,29,10,55,21.40
2020,09,29,10,56,21.40
2020,09,29,10,57,21.40
2020,09,29,10,58,21.40
2020,09,29,10,59,21.40
2020,09,29,11,00,21.40
2020,09,29,11,01,21.40
2020,09,29,11,02,21.40
2020,09,29,11,03,21.50
2020,09,29,11,04,21.60
2020,09,29,11,05,21.60
2020,09,29,11,06,21.60
2020,09,29,11,07,21.60
2020,09,29,11,08,21.60
2020,09,29,11,09,21.60
2020,09,29,11,10,21.70
2020,09,29,11,11,21.70
2020,09,29,11,12,21.80
2020,09,29,11,13,21.80
2020,09,29,11,14,21.90
2020,09,29,11,15,22.00
2020,09,29,11,16,22.00
2020,09,29,11,17,22.10
2020,09,29,11,18,22.20
2020,09,29,11,19,22.30
2020,09,29,11,20,22.30
2020,09,29,11,21,22.40
2020,09,29,11,22,22.40
2020,09,29,11,23,22.50
2020,09,29,11,24,22.50
2020,09,29,11,25,22.60
2020,09,29,11,26,22.60
2020,09,29,11,27,22.70
2020,09,29,11,28,22.80
2020,09,29,11,29,22.80
2020,09,29,11,30,22.90
2020,09,29,11,31,22.90
2020,09,29,11,32,22.90
2020,09,29,11,33,23.00
2020,09,29,11,34,23.10
2020,09,29,11,35,23.20
2020,09,29,11,36,23.20
2020,09,29,11,37,23.20
2020,09,29,11,38,23.30
2020,09,29,11,39,23.30
2020,09,29,11,40,23.30
2020,09,29,11,41,23.40
2020,09,29,11,42,23.50
2020,09,29,11,43,23.60
2020,09,29,11,44,23.60
2020,09,29,11,45,23.60
2020,09,29,11,46,23.60
2020,09,29,11,47,23.60
2020,09,29,11,48,23.60
2020,09,29,11,49,23.60
2020,09,29,11,50,23.70
2020,09,29,11,51,23.70
2020,09,29,11,52,23.70
2020,09,29,11,53,23.70
2020,09,29,11,54,23.60
2020,09,29,11,55,23.60
2020,09,29,11,56,23.40
2020,09,29,11,57,23.40
2020,09,29,11,58,23.40
2020,09,29,11,59,23.40
2020,09,29,12,00,23.40
2020,09,29,12,01,23.40
2020,09,29,12,02,23.40
2020,09,29,12,03,23.30
2020,09,29,12,04,23.20
2020,09,29,12,05,23.10
2020,09,29,12,06,23.10
2020,09,29,12,07,23.10
2020,09,29,12,08,23.00
2020,09,29,12,09,22.90
2020,09,29,12,10,22.90
2020,09,29,12,11,22.80
2020,09,29,12,12,22.70
2020,09,29,12,13,22.70
2020,09,29,12,14,22.70
2020,09,29,12,15,22.70
2020,09,29,12,16,22.70
2020,09,29,12,17,22.60
2020,09,29,12,18,22.60
2020,09,29,12,19,22.70
2020,09,29,12,20,22.70
2020,09,29,12,21,22.70
2020,09,29,12,22,22.70
2020,09,29,12,23,22.70
2020,09,29,12,24,22.70
2020,09,29,12,25,22.60
2020,09,29,12,26,22.60
2020,09,29,12,27,22.60
2020,09,29,12,28,22.70
2020,09,29,12,29,22.70
2020,09,29,12,30,22.80
2020,09,29,12,31,22.80
2020,09,29,12,32,22.80
2020,09,29,12,33,22.90
2020,09,29,12,34,22.90
2020,09,29,12,35,23.00
2020,09,29,12,36,23.10
2020,09,29,12,37,23.20
2020,09,29,12,38,23.20
2020,09,29,12,39,23.20
2020,09,29,12,40,23.20
2020,09,29,12,41,23.30
2020,09,29,12,42,23.30
2020,09,29,12,43,23.40
2020,09,29,12,44,23.60
2020,09,29,12,45,23.70
2020,09,29,12,46,23.70
2020,09,29,12,47,23.80
2020,09,29,12,48,23.90
2020,09,29,12,49,24.10
2020,09,29,12,50,24.10
2020,09,29,12,51,24.00
2020,09,29,12,52,23.90
2020,09,29,12,53,23.90
2020,09,29,12,54,23.90
2020,09,29,12,55,23.90
2020,09,29,12,56,23.80
2020,09,29,12,57,23.70
2020,09,29,12,58,23.70
2020,09,29,12,59,23.70
2020,09,29,13,00,23.60
2020,09,29,13,01,23.60
2020,09,29,13,02,23.50
2020,09,29,13,03,23.30
2020,09,29,13,04,23.30
2020,09,29,13,05,23.30
2020,09,29,13,06,23.20
2020,09,29,13,07,23.20
2020,09,29,13,08,23.10
2020,09,29,13,09,23.20
2020,09,29,13,10,23.20
2020,09,29,13,11,23.20
2020,09,29,13,12,23.10
2020,09,29,13,13,23.10
2020,09,29,13,14,23.00
2020,09,29,13,15,22.90
2020,09,29,13,16,22.90
2020,09,29,13,17,22.90
2020,09,29,13,18,22.90
2020,09,29,13,19,23.10
2020,09,29,13,20,23.10
2020,09,29,13,21,23.10
2020,09,29,13,22,23.20
2020,09,29,13,23,23.20
2020,09,29,13,24,23.20
2020,09,29,13,25,23.30
2020,09,29,13,26,23.20
2020,09,29,13,27,23.30
2020,09,29,13,28,23.30
2020,09,29,13,29,23.30
2020,09,29,13,30,23.30
2020,09,29,13,31,23.30
2020,09,29,13,32,23.30
2020,09,29,13,33,23.40
2020,09,29,13,34,23.50
2020,09,29,13,35,23.60
2020,09,29,13,36,23.70
2020,09,29,13,37,23.70
2020,09,29,13,38,23.70
2020,09,29,13,39,23.70
2020,09,29,13,40,23.80
2020,09,29,13,41,23.80
2020,09,29,13,42,23.80
2020,09,29,13,43,23.80
2020,09,29,13,44,23.80
2020,09,29,13,45,23.70
2020,09,29,13,46,23.70
2020,09,29,13,47,23.70
2020,09,29,13,48,23.70
2020,09,29,13,49,23.70
2020,09,29,13,50,23.70
2020,09,29,13,51,23.70
2020,09,29,13,52,23.60
2020,09,29,13,53,23.50
2020,09,29,13,54,23.40
2020,09,29,13,55,23.40
2020,09,29,13,56,23.50
2020,09,29,13,57,23.60
2020,09,29,13,58,23.60
2020,09,29,13,59,23.60
2020,09,29,14,00,23.60
2020,09,29,14,01,23.60
2020,09,29,14,02,23.60
2020,09,29,14,03,23.60
2020,09,29,14,04,23.70
2020,09,29,14,05,23.70
2020,09,29,14,06,23.70
2020,09,29,14,07,23.80
2020,09,29,14,08,23.80
2020,09,29,14,09,23.90
2020,09,29,14,10,24.00
2020,09,29,14,11,24.10
2020,09,29,14,12,24.10
2020,09,29,14,13,24.10
2020,09,29,14,14,24.10
2020,09,29,14,15,24.10
2020,09,29,14,16,24.20
2020,09,29,14,17,24.10
2020,09,29,14,18,24.10
2020,09,29,14,19,24.10
2020,09,29,14,20,24.10
2020,09,29,14,21,24.10
2020,09,29,14,22,24.10
2020,09,29,14,23,24.10
2020,09,29,14,24,24.00
2020,09,29,14,25,23.90
2020,09,29,14,26,23.80
2020,09,29,14,27,23.70
2020,09,29,14,28,23.70
2020,09,29,14,29,23.60
2020,09,29,14,30,23.50
2020,09,29,14,31,23.40
2020,09,29,14,32,23.40
2020,09,29,14,33,23.40
2020,09,29,14,34,23.40
2020,09,29,14,35,23.40
2020,09,29,14,36,23.40
2020,09,29,14,37,23.30
2020,09,29,14,38,23.30
2020,09,29,14,39,23.40
2020,09,29,14,40,23.40
2020,09,29,14,41,23.30
2020,09,29,14,42,23.30
2020,09,29,14,43,23.30
2020,09,29,14,44,23.40
2020,09,29,14,45,23.40
2020,09,29,14,46,23.40
2020,09,29,14,47,23.40
2020,09,29,14,48,23.40
2020,09,29,14,49,23.40
2020,09,29,14,50,23.40
2020,09,29,14,51,23.40
2020,09,29,14,52,23.30
2020,09,29,14,53,23.30
2020,09,29,14,54,23.30
2020,09,29,14,55,23.30
2020,09,29,14,56,23.30
2020,09,29,14,57,23.30
2020,09,29,14,58,23.30
2020,09,29,14,59,23.30
2020,09,29,15,00,23.30
2020,09,29,15,01,23.40
2020,09,29,15,02,23.40
2020,09,29,15,03,23.40
2020,09,29,15,04,23.50
2020,09,29,15,05,23.50
2020,09,29,15,06,23.40
2020,09,29,15,07,23.50
2020,09,29,15,08,23.60
2020,09,29,15,09,23.60
2020,09,29,15,10,23.70
2020,09,29,15,11,23.70
2020,09,29,15,12,23.70
2020,09,29,15,13,23.70
2020,09,29,15,14,23.70
2020,09,29,15,15,23.70
2020,09,29,15,16,23.70
2020,09,29,15,17,23.60
2020,09,29,15,18,23.60
2020,09,29,15,19,23.50
2020,09,29,15,20,23.40
2020,09,29,15,21,23.40
2020,09,29,15,22,23.30
2020,09,29,15,23,23.30
2020,09,29,15,24,23.30
2020,09,29,15,25,23.30
2020,09,29,15,26,23.30
2020,09,29,15,27,23.30
2020,09,29,15,28,23.30
2020,09,29,15,29,23.30
2020,09,29,15,30,23.30
2020,09,29,15,31,23.30
2020,09,29,15,32,23.30
2020,09,29,15,33,23.30
2020,09,29,15,34,23.40
2020,09,29,15,35,23.40
2020,09,29,15,36,23.50
2020,09,29,15,37,23.40
2020,09,29,15,38,23.40
2020,09,29,15,39,23.30
2020,09,29,15,40,23.30
2020,09,29,15,41,23.40
2020,09,29,15,42,23.40
2020,09,29,15,43,23.40
2020,09,29,15,44,23.40
2020,09,29,15,45,23.40
2020,09,29,15,46,23.40
2020,09,29,15,47,23.40
2020,09,29,15,48,23.40
2020,09,29,15,49,23.30
2020,09,29,15,50,23.30
2020,09,29,15,51,23.40
2020,09,29,15,52,23.40
2020,09,29,15,53,23.40
2020,09,29,15,54,23.30
2020,09,29,15,55,23.30
2020,09,29,15,56,23.30
2020,09,29,15,57,23.30
2020,09,29,15,58,23.30
2020,09,29,15,59,23.30
2020,09,29,16,00,23.30
2020,09,29,16,01,23.30
2020,09,29,16,02,23.20
2020,09,29,16,03,23.20
2020,09,29,16,04,23.10
2020,09,29,16,05,23.10
2020,09,29,16,06,22.90
2020,09,29,16,07,22.90
2020,09,29,16,08,22.90
2020,09,29,16,09,22.90
2020,09,29,16,10,22.90
2020,09,29,16,11,22.90
2020,09,29,16,12,22.90
2020,09,29,16,13,22.90
2020,09,29,16,14,22.90
2020,09,29,16,15,22.80
2020,09,29,16,16,22.80
2020,09,29,16,17,22.70
2020,09,29,16,18,22.70
2020,09,29,16,19,22.80
2020,09,29,16,20,22.80
2020,09,29,16,21,22.80
2020,09,29,16,22,22.80
2020,09,29,16,23,22.80
2020,09,29,16,24,22.80
2020,09,29,16,25,22.80
2020,09,29,16,26,22.80
2020,09,29,16,27,22.80
2020,09,29,16,28,22.80
2020,09,29,16,29,22.90
2020,09,29,16,30,22.80
2020,09,29,16,31,22.80
2020,09,29,16,32,22.80
2020,09,29,16,33,22.70
2020,09,29,16,34,22.70
2020,09,29,16,35,22.70
2020,09,29,16,36,22.70
2020,09,29,16,37,22.70
2020,09,29,16,38,22.70
2020,09,29,16,39,22.70
2020,09,29,16,40,22.70
2020,09,29,16,41,22.70
2020,09,29,16,42,22.70
2020,09,29,16,43,22.70
2020,09,29,16,44,22.70
2020,09,29,16,45,22.80
2020,09,29,16,46,22.70
2020,09,29,16,47,22.70
2020,09,29,16,48,22.70
2020,09,29,16,49,22.70
2020,09,29,16,50,22.60
2020,09,29,16,51,22.60
2020,09,29,16,52,22.60
2020,09,29,16,53,22.50
2020,09,29,16,54,22.50
2020,09,29,16,55,22.50
2020,09,29,16,56,22.50
2020,09,29,16,57,22.50
2020,09,29,16,58,22.50
2020,09,29,16,59,22.50
2020,09,29,17,00,22.50
2020,09,29,17,01,22.50
2020,09,29,17,02,22.50
2020,09,29,17,03,22.50
2020,09,29,17,04,22.50
2020,09,29,17,05,22.50
2020,09,29,17,06,22.50
2020,09,29,17,07,22.40
2020,09,29,17,08,22.40
2020,09,29,17,09,22.40
2020,09,29,17,10,22.30
2020,09,29,17,11,22.30
2020,09,29,17,12,22.20
2020,09,29,17,13,22.20
2020,09,29,17,14,22.10
2020,09,29,17,15,22.10
2020,09,29,17,16,22.10
2020,09,29,17,17,22.00
2020,09,29,17,18,22.00
2020,09,29,17,19,22.00